Wind_Speed
1 1 1 1 2 3 3 2 1 1 2 2 2 3 4 3 5 5 7 9 10 10 12 14 14 12 11 11 11 11 12 12 10 8 8 7 5 6 8 8 8 9 9 8 8 6 5 4 4 3 3 5 5 3 2 2 2 2 2 2 2 3 3 4 4 5 5 5 5 5 5 5 4 4 4 4 4 3 3 3 3 3 3 3 4
2 2 1 1 2 3 4 2 1 1 2 3 4 6 5 5 6 7 8 9 9 9 11 14 14 13 11 11 12 12 12 11 10 7 5 5 4 5 5 5 7 9 9 8 8 7 6 5 5 4 4 5 6 6 5 3 3 4 4 4 3 3 3 2 2 3 4 4 4 4 4 4 3 3 4 4 4 3 3 3 4 4 4 4 4
3 3 3 3 4 4 5 4 3 3 4 5 5 6 6 7 8 9 9 9 10 11 11 13 14 14 12 13 14 13 11 9 9 7 4 4 4 5 4 3 6 8 10 9 9 8 7 6 5 5 5 5 6 8 8 7 5 4 5 5 5 4 4 4 3 3 3 3 3 4 4 4 4 4 4 4 4 4 4 4 5 6 6 6 5
3 3 4 5 5 5 6 6 4 5 5 5 5 6 7 8 9 10 10 11 11 12 12 13 14 15 15 15 15 13 11 9 8 7 5 4 4 5 4 1 3 6 9 9 9 9 8 7 6 6 6 6 6 8 9 9 8 7 6 6 6 6 5 5 5 4 4 4 3 3 3 4 4 4 4 5 5 5 5 5 5 6 7 7 7
4 4 5 6 7 7 8 7 6 6 5 5 6 8 9 9 10 10 10 11 12 13 12 12 14 16 17 16 14 13 11 10 7 5 4 4 3 2 2 2 1 3 5 7 8 9 9 8 7 7 7 7 7 8 9 10 10 10 9 8 7 7 6 7 7 6 6 5 4 4 4 4 4 4 5 5 6 6 6 5 5 6 7 8 8
5 6 6 7 8 8 8 7 6 7 7 7 7 9 9 9 10 10 10 11 12 12 12 13 15 17 17 15 13 12 11 11 7 4 4 4 4 2 1 2 1 1 4 6 8 9 10 8 7 7 6 6 8 9 9 9 10 11 11 12 11 10 9 9 8 8 8 6 6 5 5 5 5 5 6 6 6 7 7 7 6 6 7 7 8
6 6 7 7 7 8 8 6 7 8 8 9 9 9 9 9 10 11 12 12 12 13 15 17 18 17 14 12 11 11 11 11 5 3 5 4 4 4 1 1 0 1 3 7 8 9 10 7 5 6 6 7 7 8 9 9 10 10 11 13 14 13 12 12 11 10 9 8 7 6 6 6 6 6 6 6 6 7 7 8 7 7 7 8 8
6 7 7 7 7 7 6 5 7 9 9 10 9 9 9 10 10 12 13 14 15 17 18 20 19 15 12 10 9 9 9 8 3 4 5 4 5 5 4 2 2 1 3 6 8 9 8 5 6 7 7 8 8 8 8 9 9 9 11 13 13 14 14 14 14 12 11 10 9 9 8 8 8 8 8 7 7 7 7 8 8 8 8 8 9
7 7 8 7 8 7 5 4 6 8 9 9 9 9 10 11 12 13 14 15 17 18 19 19 17 15 12 9 8 7 6 6 4 5 5 5 5 5 5 4 2 3 3 5 6 7 6 5 7 9 9 9 9 9 9 10 10 9 10 12 12 13 14 15 15 14 13 12 12 11 11 11 11 10 10 10 10 10 9 9 8 9 8 8 9
7 7 8 8 8 8 5 4 7 8 9 9 9 10 11 12 12 13 16 17 18 19 18 17 14 12 10 8 6 4 3 4 4 5 6 7 6 6 7 6 4 3 4 5 4 4 5 5 7 9 10 10 10 10 11 11 11 10 10 11 11 12 14 14 15 14 14 14 13 13 13 13 13 12 11 11 11 12 12 11 11 10 10 9 9
7 7 8 9 9 9 7 6 8 10 10 10 10 11 12 12 13 15 17 17 18 18 17 15 11 8 6 5 4 2 3 4 5 5 6 7 7 6 6 6 7 6 5 6 5 5 6 6 7 8 9 10 10 10 11 12 12 11 12 12 12 12 13 14 15 15 16 15 15 15 15 15 15 14 13 13 13 13 13 13 13 12 12 12 11
8 8 9 11 11 10 9 8 9 10 11 11 11 11 11 12 14 15 16 16 15 15 15 14 9 5 3 2 2 2 3 5 6 6 6 7 6 4 4 5 7 7 7 7 7 8 9 9 9 9 9 9 10 10 10 11 12 12 13 14 13 14 14 14 14 16 17 17 17 17 17 17 17 17 17 16 15 14 14 14 13 13 13 13 13
9 9 10 12 12 10 10 9 9 10 10 11 12 11 11 12 13 13 13 14 14 14 13 11 7 5 2 3 2 3 4 5 6 7 7 7 7 5 5 6 7 8 9 8 8 10 11 11 11 11 11 11 11 11 11 12 12 13 14 14 15 15 15 14 15 16 17 19 19 19 19 19 19 19 19 19 18 17 16 15 14 14 14 14 15
9 10 11 12 12 11 10 10 10 10 11 12 12 10 10 10 10 11 12 12 13 13 12 10 7 5 1 2 3 4 5 5 6 7 7 5 3 3 5 6 8 8 9 9 10 11 12 13 13 12 12 13 13 13 13 14 14 13 13 14 15 15 15 15 16 16 18 19 19 20 20 20 20 21 21 21 21 20 19 18 17 16 16 16 16
9 9 10 10 11 11 10 10 10 10 11 11 10 9 9 9 10 10 11 11 11 12 12 10 7 4 1 2 3 5 5 4 5 6 5 3 2 2 3 5 8 8 7 8 10 12 13 13 14 14 14 14 13 13 14 14 14 14 14 14 15 15 16 16 16 17 17 18 19 20 21 21 21 21 21 22 22 22 22 22 21 20 20 19 18
9 9 9 10 11 11 11 10 9 9 9 8 7 7 7 7 8 9 10 10 10 11 12 11 9 6 2 0 2 4 5 5 5 5 5 5 4 3 3 4 7 8 7 7 8 11 13 14 13 14 15 15 15 14 14 14 15 16 17 17 17 17 17 17 17 16 17 18 18 19 20 21 22 23 23 23 23 23 24 24 24 24 23 22 21
9 9 10 11 11 11 10 9 8 7 6 6 5 5 5 5 7 8 9 10 10 11 11 12 11 9 6 3 1 3 5 6 6 5 4 6 8 7 6 6 8 9 10 10 9 9 11 13 13 14 15 16 15 15 15 15 16 17 18 18 18 18 18 17 17 18 18 18 18 19 20 21 22 23 24 24 25 25 25 25 25 25 25 25 25
10 11 11 11 11 10 9 8 6 5 5 4 4 3 4 5 6 8 10 10 10 10 11 12 11 9 8 6 3 3 5 5 5 6 5 6 10 10 9 10 10 9 8 9 10 10 10 13 14 14 16 16 15 15 14 14 15 16 18 19 19 19 19 19 19 20 20 20 20 20 20 20 21 22 23 24 25 26 26 26 26 26 26 26 26
11 12 12 11 9 8 7 6 4 4 4 3 2 2 4 6 7 9 10 11 11 11 11 12 11 10 9 8 6 5 5 4 6 8 9 9 11 12 12 12 10 8 7 6 7 9 9 11 14 15 15 16 17 16 14 12 13 14 16 17 18 19 19 19 20 20 21 21 21 21 21 21 21 22 22 23 24 25 25 26 26 27 27 27 26
12 11 11 10 8 6 5 4 4 5 4 2 1 3 5 6 8 9 10 11 12 12 12 12 12 11 9 8 7 7 6 5 6 9 11 11 11 12 12 12 10 8 8 6 4 5 6 8 13 15 14 14 17 18 16 14 13 14 15 16 17 17 18 18 19 20 20 21 21 21 21 21 21 21 22 22 23 24 24 25 26 26 27 27 27
12 11 10 9 8 6 4 4 5 5 4 2 2 4 5 7 9 9 11 12 12 12 12 12 13 12 11 10 9 8 7 6 7 8 9 9 10 11 11 11 11 11 12 11 8 6 6 6 9 10 10 11 13 16 17 16 14 15 16 17 17 17 17 18 18 18 19 19 20 20 20 20 20 20 21 21 22 22 23 24 25 26 26 27 27
12 10 9 7 7 6 5 5 5 5 5 4 4 5 6 7 9 10 12 13 13 13 13 12 12 13 13 12 10 9 9 8 8 8 8 8 8 11 11 11 13 13 13 14 12 9 8 6 5 6 7 8 9 12 15 16 15 15 16 17 18 18 18 18 18 19 19 19 19 19 20 20 20 20 21 21 21 21 22 23 24 24 25 26 26
11 9 7 7 7 7 5 5 5 6 6 6 6 6 7 9 11 12 14 14 15 16 16 14 14 14 14 14 13 11 10 9 9 9 8 7 8 10 11 12 14 15 14 13 12 12 12 10 8 7 7 7 8 10 12 14 13 13 14 15 17 19 19 19 19 20 20 20 20 20 20 20 21 22 22 22 22 22 22 22 23 23 24 25 26
9 7 6 7 8 7 5 4 5 7 8 8 9 9 9 10 13 14 14 15 16 18 18 18 16 16 15 15 15 14 13 11 11 10 8 7 8 10 12 13 14 14 14 13 13 12 13 13 12 13 11 8 6 6 6 8 8 8 9 10 12 14 16 18 19 20 21 21 21 21 21 21 22 23 23 24 24 24 24 24 24 24 24 25 25
8 7 7 8 8 6 4 4 6 8 10 10 10 11 10 12 14 14 15 17 19 20 20 19 17 16 16 16 16 16 15 14 13 11 9 8 8 9 11 12 13 13 13 14 13 11 11 12 13 13 12 9 8 7 5 5 6 6 7 8 9 11 12 14 17 18 20 20 20 19 19 20 20 22 23 24 24 25 25 25 25 25 26 26 26
8 8 8 8 7 5 4 5 7 9 11 11 11 11 11 13 14 15 19 22 22 22 21 18 15 15 16 16 17 17 16 16 15 13 10 9 9 8 10 11 12 12 12 13 13 10 10 11 11 10 9 8 8 8 8 9 9 9 9 9 10 11 12 12 13 15 17 18 18 18 18 18 19 20 21 22 23 24 24 25 25 25 26 26 27
9 9 8 7 6 4 5 7 8 11 12 12 13 13 13 15 17 18 22 23 23 23 21 17 15 16 17 18 17 18 17 16 15 13 11 10 9 9 10 11 11 11 11 12 12 11 10 11 11 9 8 7 7 7 8 9 10 10 10 10 10 11 13 14 14 15 16 18 19 20 20 20 20 21 21 22 22 22 23 23 24 25 25 26 26
10 10 7 6 5 5 7 8 9 12 13 12 14 16 17 19 20 21 23 23 24 23 21 18 18 19 21 21 20 18 17 16 15 15 14 12 11 11 11 11 11 11 10 11 11 11 11 12 12 10 9 8 8 7 8 9 11 12 12 12 11 11 13 15 15 16 18 20 22 23 24 24 24 23 23 23 23 23 24 24 24 24 25 26 26
10 9 7 5 5 6 8 9 10 12 12 12 15 18 20 21 21 23 24 24 25 23 21 20 21 22 24 24 22 20 19 17 16 15 15 15 13 12 11 11 10 10 10 10 10 11 11 12 13 11 10 10 9 8 9 11 13 14 15 14 14 14 14 15 16 17 18 20 22 23 24 26 27 26 25 25 24 24 25 25 25 25 25 25 26
10 9 6 5 6 6 7 9 9 10 12 13 15 17 20 21 22 24 25 25 25 23 22 23 24 25 25 23 21 20 19 17 17 16 16 16 14 12 11 10 10 10 10 10 10 10 11 11 12 12 11 10 8 8 11 14 15 15 16 16 17 17 17 18 18 19 20 21 22 22 22 24 25 26 27 26 25 24 24 24 24 25 25 25 25
10 10 7 6 8 8 8 8 8 9 11 12 14 16 19 21 22 24 25 25 25 23 23 24 25 27 25 22 20 19 19 17 17 16 16 15 14 12 12 11 11 11 11 10 10 10 11 11 11 12 12 11 10 10 14 17 18 18 18 18 19 20 19 19 19 19 20 21 22 22 21 21 23 24 26 26 25 25 25 24 23 23 24 24 24
10 11 10 8 9 10 11 11 10 11 12 13 14 16 17 19 20 23 25 25 25 24 24 24 25 26 25 22 21 20 19 17 16 16 16 16 14 13 13 13 13 13 13 12 10 11 11 11 11 12 13 13 12 14 17 21 21 21 21 21 22 22 22 21 20 20 20 21 21 22 21 21 21 22 23 23 24 24 25 25 26 26 26 25 25
11 11 11 10 11 12 13 13 14 15 16 16 17 18 19 19 20 22 25 26 25 24 24 25 25 26 25 23 22 22 20 17 17 17 17 18 17 15 15 14 14 14 14 14 12 12 12 12 11 13 14 14 14 17 22 24 25 26 26 25 25 24 23 23 22 21 21 21 21 22 22 21 21 20 21 22 23 24 25 26 26 27 28 29 28
10 10 12 12 14 15 15 16 16 18 19 20 21 22 23 23 23 23 25 26 26 25 24 24 25 26 26 25 24 23 21 18 18 19 19 18 17 17 17 16 15 15 16 15 14 14 13 12 11 12 14 14 16 19 24 26 26 27 26 26 27 27 26 25 24 23 22 22 21 22 22 22 21 21 21 22 23 24 26 26 26 27 28 30 31
10 11 12 13 15 16 15 15 16 18 20 21 23 25 26 27 27 27 27 28 28 27 26 25 25 26 26 26 26 25 23 20 19 20 20 19 18 18 18 17 16 17 17 17 16 16 14 12 12 12 13 15 18 21 24 26 26 25 24 25 29 30 29 28 27 25 24 24 24 23 23 22 22 22 23 24 25 26 26 26 26 26 27 29 31
12 12 13 15 15 15 13 13 15 17 18 19 22 25 27 29 29 30 30 29 29 30 30 28 27 26 26 26 26 25 23 20 20 20 20 20 19 20 20 19 18 18 18 18 18 17 17 16 15 16 17 19 21 23 24 26 25 23 24 27 30 31 30 29 30 29 27 26 26 26 25 25 24 24 25 27 28 28 28 27 27 27 28 29 31
12 12 13 14 14 13 13 13 15 17 18 19 21 23 26 28 30 31 31 31 30 31 32 31 30 28 27 26 25 24 22 21 20 20 20 20 20 20 19 18 17 18 19 19 19 19 20 20 20 19 20 22 23 24 25 27 26 25 27 30 31 31 29 28 28 29 29 28 28 28 28 28 28 27 28 29 29 29 29 29 29 30 31 31 32
14 14 14 14 14 14 13 14 16 19 21 23 24 25 26 27 30 31 32 32 32 31 30 30 30 29 28 25 23 22 22 21 21 21 20 20 20 20 19 18 18 20 21 21 21 23 24 25 24 22 22 24 26 26 27 29 30 30 32 34 34 32 29 28 26 26 28 29 29 29 30 30 30 30 29 30 31 31 32 31 31 32 32 32 32
16 17 16 16 16 16 16 17 19 21 23 26 27 28 28 29 30 31 32 32 32 31 29 28 28 30 29 25 23 23 23 22 22 21 20 20 21 22 23 23 23 25 25 25 26 27 28 28 27 26 26 27 29 30 31 33 34 35 36 37 36 33 29 28 27 26 27 28 30 30 30 30 31 31 31 32 33 34 34 34 34 34 34 33 32
18 17 18 18 19 20 20 20 21 22 24 26 29 30 30 29 29 29 32 32 32 31 29 26 26 27 29 28 25 25 25 25 24 22 21 21 21 23 25 26 25 25 25 27 29 30 31 31 30 30 30 31 32 34 36 37 38 36 36 37 37 33 29 27 27 26 27 28 30 30 31 31 31 32 32 33 34 34 35 35 35 36 36 35 34
19 19 20 21 22 22 22 23 25 26 27 29 30 31 32 32 30 29 32 33 33 32 30 28 26 26 28 30 29 28 28 28 26 24 23 23 23 24 26 27 26 25 26 28 30 31 32 33 33 33 33 33 34 37 39 38 37 35 34 36 36 33 30 29 27 26 28 29 30 31 32 32 33 33 33 33 34 34 34 34 35 36 37 36 34
21 21 22 23 24 25 25 26 27 28 29 31 33 34 35 36 35 33 34 35 34 33 31 30 29 28 28 30 32 32 31 30 27 25 24 25 25 24 25 27 27 28 29 30 31 33 34 35 36 36 36 35 36 39 39 36 34 33 34 34 34 32 32 31 29 27 28 30 32 33 34 33 33 34 33 33 33 33 34 34 35 36 36 35 34
22 22 23 24 25 26 27 28 29 30 32 33 34 36 37 37 34 33 35 36 35 34 33 32 32 32 30 31 34 35 32 30 27 25 24 24 24 23 23 24 26 28 30 31 32 34 36 37 38 36 36 37 38 38 35 33 32 32 32 33 33 32 32 33 33 31 29 30 34 37 36 32 32 34 33 32 32 33 32 32 33 34 34 33 33
23 24 23 23 24 25 27 29 30 31 31 33 35 36 39 40 36 32 33 35 35 35 35 34 34 34 32 34 36 35 31 29 27 24 23 23 22 22 21 21 23 25 27 29 30 31 32 33 34 34 35 38 38 34 32 31 32 31 32 32 33 34 35 36 37 36 33 32 35 38 37 32 31 33 32 30 31 32 31 30 31 31 31 31 32
24 23 23 22 24 26 28 30 31 31 31 32 35 36 40 43 38 31 31 32 33 35 36 35 35 34 34 36 38 36 31 29 26 23 22 22 22 22 19 19 21 23 25 27 28 29 29 30 32 33 34 36 35 32 30 31 32 32 34 34 34 36 37 37 38 38 35 33 35 37 37 32 30 31 31 29 31 32 31 30 29 28 28 29 30
23 23 23 24 26 29 31 31 32 31 30 30 31 34 41 44 37 31 30 30 32 35 36 35 35 35 36 39 38 35 31 26 22 20 20 21 22 21 19 19 21 23 25 26 27 28 29 29 30 31 31 33 33 32 31 32 34 35 36 37 36 36 36 36 36 36 34 33 34 37 37 32 29 31 30 29 32 34 32 30 29 27 28 29 30
23 24 25 27 28 29 30 31 31 29 26 24 25 30 39 44 38 32 30 30 32 35 35 35 36 37 38 39 36 33 28 22 18 17 19 20 21 19 18 18 20 22 23 25 26 26 26 27 29 30 31 32 33 33 34 34 36 37 37 37 37 36 36 36 35 34 32 31 32 35 37 33 29 31 31 31 34 35 33 30 28 28 29 30 30
25 26 26 27 27 26 27 27 25 23 21 21 25 30 36 41 39 34 31 31 34 37 36 36 37 38 39 37 33 30 25 18 15 17 18 19 18 16 16 18 19 21 22 22 23 24 26 28 30 31 32 33 34 34 35 36 37 37 37 37 36 35 36 36 35 33 31 29 28 31 35 33 31 31 32 34 36 35 31 29 27 28 29 30 30
26 25 25 25 23 22 21 18 16 18 21 26 33 37 38 39 39 36 33 33 36 38 37 38 38 39 37 33 30 27 22 17 16 17 18 18 16 16 18 19 20 20 19 20 23 25 27 28 29 31 32 33 34 35 35 35 35 35 36 36 35 34 35 36 34 31 29 26 25 29 33 32 31 32 34 34 34 33 31 29 28 28 28 28 28
27 25 24 22 19 16 14 14 16 21 28 35 42 43 38 35 36 36 35 36 36 37 37 38 38 36 33 29 26 23 18 15 16 17 17 17 16 18 19 19 18 19 20 23 26 27 27 28 30 31 33 33 34 35 34 33 33 33 35 35 34 34 34 34 32 30 28 25 24 28 31 30 30 32 32 33 33 32 31 30 29 27 26 26 26
25 23 21 17 14 14 15 19 23 28 34 40 43 41 34 31 33 35 35 36 36 36 36 35 34 31 28 25 23 20 17 16 16 16 17 18 18 18 18 18 19 21 23 25 26 26 27 28 30 32 33 33 33 33 32 31 31 31 32 33 33 33 32 31 29 29 28 24 22 26 29 30 30 31 31 33 35 32 28 28 28 25 24 24 25
Wind_Direction
311 69 62 320 331 320 299 313 24 356 322 322 313 319 319 325 348 337 327 338 345 345 337 330 325 321 327 327 319 313 309 306 301 300 316 321 302 290 283 261 240 233 232 236 244 249 247 250 250 247 235 223 224 232 218 165 159 161 165 174 180 178 175 177 177 180 183 184 187 190 193 196 202 202 200 198 197 204 219 234 236 230 229 233 237
289 294 319 282 287 288 287 281 254 294 306 302 299 307 312 319 333 332 333 340 336 333 336 335 326 320 323 319 313 311 308 303 295 297 319 322 314 312 296 252 229 227 231 231 229 234 240 241 242 241 233 217 213 218 222 211 184 166 166 170 173 176 178 186 193 195 193 191 189 190 195 202 216 228 230 229 226 226 236 253 263 264 257 251 247
267 283 291 273 264 271 282 282 265 284 303 304 305 309 312 316 325 329 331 329 325 329 339 338 326 318 319 318 319 321 321 308 292 297 318 326 321 324 322 242 216 218 222 224 222 225 231 234 237 239 238 228 215 215 221 226 219 194 183 187 192 194 197 202 210 215 213 213 214 208 205 207 212 228 244 250 251 249 251 257 267 274 274 268 260
274 273 280 278 271 269 275 281 279 286 295 296 303 307 302 307 319 324 328 328 329 335 340 336 327 322 321 322 322 325 336 325 296 298 318 332 326 328 340 287 221 224 222 219 221 224 226 231 235 236 235 234 225 218 219 225 228 220 209 205 202 200 199 202 206 211 213 212 222 232 235 234 230 229 237 248 256 258 258 259 264 270 275 275 270
272 263 268 274 276 275 275 286 293 292 289 287 298 302 299 306 318 321 326 334 335 336 337 331 328 326 322 321 316 319 335 329 302 290 301 312 310 316 348 351 286 245 232 222 224 226 227 229 232 234 233 231 230 225 221 222 226 225 223 221 215 212 206 201 200 201 205 208 211 221 234 245 252 252 249 249 252 254 254 253 257 264 270 275 275
255 258 266 272 276 276 277 289 293 291 290 290 295 295 297 306 315 317 322 331 332 326 325 324 326 326 320 316 310 312 323 325 314 282 273 282 285 289 21 26 7 253 230 226 228 229 230 230 237 245 248 249 240 230 227 224 224 224 224 224 221 222 221 214 209 205 203 207 214 222 229 233 242 251 257 260 262 263 262 257 254 256 262 267 271
254 261 268 272 277 277 283 291 284 283 288 290 293 293 298 307 313 316 320 326 319 313 319 323 328 328 322 315 309 310 315 321 323 249 250 262 267 282 296 139 125 273 235 227 228 232 233 232 244 251 252 258 254 242 236 232 232 231 229 230 227 226 227 224 221 219 216 217 223 232 237 240 241 246 251 255 260 264 268 268 266 263 264 266 266
263 268 269 271 277 282 290 294 281 281 284 287 291 295 299 305 312 316 320 320 311 313 320 324 328 328 323 316 306 309 309 306 288 206 226 242 247 265 279 247 149 150 251 237 231 235 238 231 230 232 230 239 245 247 247 245 245 243 237 237 236 235 236 235 233 231 229 230 232 235 236 240 243 250 256 258 260 261 262 265 268 270 270 272 273
266 272 273 273 274 280 294 290 279 280 283 288 292 295 300 304 311 317 319 315 311 315 319 320 322 320 320 317 306 308 297 279 250 206 214 233 243 251 263 270 199 180 242 259 244 235 236 235 233 232 229 233 236 240 246 248 250 248 243 242 242 242 243 245 246 244 242 243 242 240 239 240 243 250 258 263 266 267 265 264 268 271 272 272 275
270 278 277 275 269 274 293 288 279 281 284 290 294 296 300 303 309 315 316 314 315 317 317 318 316 310 313 311 305 305 270 243 225 206 210 221 235 244 249 266 273 245 250 270 265 246 240 240 240 239 236 235 235 235 239 243 246 247 247 247 243 242 244 247 250 250 249 249 250 248 246 246 248 251 255 258 264 267 267 267 270 273 275 273 271
270 278 276 275 273 278 290 282 279 286 290 294 298 301 305 309 312 313 315 319 322 323 322 320 313 302 298 297 298 277 216 214 207 205 216 223 228 238 246 257 273 280 277 270 267 265 260 253 251 253 249 243 239 238 239 242 245 246 247 249 247 246 246 245 247 249 249 250 251 253 253 254 255 255 255 254 257 261 264 265 269 274 277 277 274
266 271 273 274 277 283 286 281 282 289 297 302 304 309 314 315 314 315 321 326 326 326 326 323 317 309 289 257 252 197 190 200 202 204 219 240 248 252 248 243 252 265 268 265 267 272 270 266 265 267 265 259 252 246 245 245 245 246 247 248 249 251 251 251 249 249 250 251 251 253 255 257 258 259 259 257 255 255 258 261 266 271 275 277 276
264 264 265 270 276 285 287 285 288 292 301 308 310 314 316 315 317 322 327 328 327 329 329 327 327 332 303 216 204 188 189 193 199 206 217 243 265 275 265 254 248 246 254 260 264 267 269 271 272 272 273 272 267 260 254 252 252 253 253 251 250 252 255 258 257 255 253 253 253 254 255 257 258 258 260 260 259 256 254 255 258 263 268 273 274
261 260 260 267 275 282 282 283 289 296 304 309 313 317 319 324 329 329 329 330 332 334 334 335 343 353 329 209 195 194 199 191 200 222 229 226 241 270 276 275 264 246 245 256 260 261 265 269 272 273 273 273 272 271 267 261 258 258 257 255 255 255 255 256 258 259 258 257 257 257 257 257 257 257 257 258 259 258 256 254 254 257 262 266 267
258 261 262 268 273 277 278 281 287 295 303 310 322 331 333 339 336 330 332 337 338 338 340 345 356 8 5 196 186 200 216 206 204 231 244 228 200 224 247 280 283 268 245 239 248 258 264 267 270 274 275 274 273 273 273 270 267 265 262 260 259 260 259 257 258 260 261 261 260 259 260 259 258 257 257 257 258 259 259 258 257 258 259 261 262
257 259 265 271 273 273 275 280 288 297 306 316 331 340 342 340 332 332 340 346 348 348 348 353 359 5 8 345 193 214 229 215 203 219 247 275 293 280 264 280 283 279 266 246 242 251 263 269 271 274 275 276 275 271 271 272 271 269 266 265 264 264 263 260 260 262 263 263 261 260 260 259 259 259 259 259 259 260 261 262 263 263 263 263 263
253 258 268 276 273 272 275 280 289 299 304 314 328 340 349 343 332 339 350 355 359 357 355 1 4 1 358 342 257 230 234 223 216 227 240 267 283 291 294 283 278 278 271 265 259 252 259 269 271 275 275 275 274 270 268 269 270 270 269 268 267 267 267 266 267 269 270 268 267 265 263 261 260 259 259 260 260 261 262 263 264 266 266 266 265
255 263 270 275 273 271 276 280 283 290 294 307 329 342 359 4 353 350 352 357 3 2 359 6 8 3 358 346 323 280 261 248 239 247 246 247 264 279 281 274 284 289 266 259 275 271 263 265 267 269 272 274 274 270 268 267 267 269 270 270 270 270 269 269 270 271 272 272 270 269 267 264 262 261 260 260 260 261 262 263 264 265 266 267 266
259 265 266 266 269 269 267 268 269 272 279 290 319 341 4 13 5 353 347 350 356 0 1 5 7 4 359 350 340 325 299 270 250 252 258 256 262 274 278 280 292 287 250 240 273 279 272 267 266 267 272 277 279 277 274 269 266 265 263 264 267 269 270 270 270 270 271 271 271 270 268 267 264 263 261 261 261 261 261 262 263 264 265 266 266
260 261 260 260 266 269 258 255 255 255 264 273 304 335 356 360 356 350 344 345 349 353 357 360 0 360 356 350 342 333 328 304 268 260 266 269 269 270 277 289 298 285 269 271 273 274 282 274 269 272 274 276 278 280 277 271 268 267 267 266 264 265 266 267 268 269 270 270 270 270 270 269 267 266 264 263 263 263 263 263 263 264 264 265 266
257 255 253 255 262 266 257 250 249 250 257 266 294 324 341 341 341 341 338 341 344 345 351 353 351 352 351 347 344 336 329 315 296 286 278 276 274 271 275 288 297 298 301 311 318 311 307 287 271 274 275 272 274 279 280 276 271 267 269 273 273 271 270 269 268 268 268 268 268 269 269 269 269 268 267 266 264 264 264 264 264 264 265 265 265
251 248 246 249 255 259 257 250 247 247 252 261 282 311 326 327 329 330 330 334 337 338 343 346 343 344 344 342 342 339 332 322 313 305 289 277 269 264 267 277 288 295 299 306 315 323 327 318 285 272 269 268 268 273 277 278 275 270 268 270 273 275 276 275 275 273 271 270 268 268 267 268 269 269 268 267 266 265 264 264 264 264 264 264 264
244 239 237 242 248 252 250 243 244 251 262 277 292 305 314 318 319 322 327 331 334 336 339 342 340 338 339 338 336 333 332 329 321 316 302 285 272 262 262 268 276 286 294 301 315 327 328 326 315 298 287 276 269 268 270 271 272 271 270 270 270 271 272 274 276 277 276 275 273 271 269 267 267 268 268 268 267 266 266 265 265 266 266 266 265
233 225 222 234 245 249 245 241 245 258 274 286 296 305 309 311 314 320 331 337 339 340 342 341 339 336 336 336 333 331 330 327 324 324 317 292 273 263 263 267 273 285 295 300 311 320 320 321 324 322 323 325 310 292 279 276 278 278 281 282 280 276 275 275 275 275 275 275 275 274 273 271 269 267 266 266 267 267 267 267 267 267 267 267 267
221 217 215 228 244 253 251 248 247 258 273 281 292 304 306 306 314 325 337 341 341 342 343 342 340 339 340 339 336 334 329 324 323 325 321 307 290 273 270 273 275 280 285 289 297 307 309 313 321 326 335 353 357 355 353 341 333 327 318 312 304 295 287 283 279 278 278 278 277 275 273 272 270 269 267 265 265 265 266 267 267 268 268 268 268
212 216 217 223 243 261 261 257 255 264 276 281 288 297 300 305 314 325 334 337 338 339 338 339 343 346 346 344 340 336 331 325 321 320 318 313 305 290 278 276 274 274 276 281 289 296 299 304 314 324 336 356 2 357 355 353 349 342 332 320 310 303 298 292 287 283 282 282 282 280 276 274 272 271 269 267 266 266 266 266 266 266 266 267 266
207 217 219 220 239 259 259 263 270 279 285 286 292 300 305 309 313 320 328 332 334 336 335 331 336 342 344 343 338 332 329 324 317 313 312 308 297 286 278 276 275 273 272 276 284 292 295 299 309 319 327 337 345 347 348 350 345 335 325 316 308 304 302 300 296 291 286 284 285 285 283 281 279 277 274 273 272 270 269 268 267 266 265 265 265
204 213 216 221 239 252 252 261 272 281 289 294 301 310 315 314 314 317 322 326 328 332 333 326 325 332 336 337 335 329 324 321 314 309 310 308 298 286 281 279 278 278 278 282 288 292 295 300 308 320 329 327 327 339 351 352 344 336 329 321 313 306 302 301 300 296 290 286 287 288 289 287 285 282 279 277 278 277 276 273 270 268 266 265 265
202 208 211 220 241 251 251 261 272 280 293 305 310 315 318 317 315 315 318 321 324 328 330 327 323 324 327 329 330 327 322 316 312 309 308 308 302 292 285 283 283 284 283 284 286 288 293 299 307 319 328 327 324 333 346 348 343 340 335 328 321 315 312 310 308 303 295 289 286 285 286 285 285 284 282 282 282 281 280 278 275 273 270 267 266
205 211 213 220 238 251 254 264 275 278 287 303 313 319 322 319 315 314 316 319 323 325 326 327 325 323 324 324 325 324 319 312 309 306 305 305 299 288 280 276 273 272 271 274 279 282 289 298 305 313 320 321 317 322 333 336 336 337 336 332 326 320 316 314 311 307 300 293 288 283 279 278 278 280 282 285 286 287 285 282 279 276 274 272 269
210 217 227 234 241 250 257 261 268 271 279 295 310 320 326 325 320 317 317 318 320 322 322 324 325 325 325 323 319 318 315 310 306 303 302 300 292 278 270 265 262 263 266 271 275 278 285 292 296 303 312 313 307 311 323 326 326 328 331 331 328 323 316 312 308 304 298 292 289 286 283 279 276 276 278 282 286 289 290 290 287 282 279 276 273
220 225 237 249 255 260 265 266 267 269 277 288 299 310 320 326 327 326 323 319 317 317 317 319 321 323 324 321 314 313 312 309 306 303 300 296 285 271 264 261 261 264 269 272 271 273 280 284 288 296 303 303 299 305 316 320 320 321 322 323 324 322 320 317 311 303 296 290 288 288 287 285 283 281 280 282 285 288 290 292 292 291 288 284 280
227 232 241 255 267 273 276 278 277 277 281 286 291 300 309 316 323 329 330 325 317 312 312 315 317 319 321 320 315 313 313 309 305 302 299 294 284 273 268 267 268 271 273 274 272 274 281 288 294 302 305 302 297 303 312 315 315 314 314 316 318 319 318 316 311 303 294 287 285 285 286 286 286 286 285 285 287 288 289 289 290 291 291 289 286
233 240 247 256 267 276 282 286 287 287 289 289 289 293 299 305 312 321 330 332 324 313 308 309 312 314 316 316 314 313 311 307 303 301 300 293 281 272 270 270 273 274 275 276 276 278 284 289 295 303 307 307 306 308 311 312 311 311 310 311 313 313 312 308 304 299 293 287 283 281 283 284 285 286 285 285 286 287 288 287 286 286 286 286 286
240 247 254 259 266 273 282 290 294 295 297 296 292 291 294 299 304 310 320 330 330 322 312 306 306 309 310 311 313 312 308 304 301 301 299 292 280 271 270 272 275 278 280 279 276 275 278 284 291 298 300 303 308 309 308 309 310 309 306 306 308 308 306 303 300 297 294 291 287 284 283 284 285 286 286 286 287 287 286 285 284 282 281 281 281
240 247 254 260 265 273 281 289 293 295 298 298 296 294 294 296 300 305 311 320 327 326 320 312 307 306 308 310 312 311 306 302 300 299 296 290 281 275 274 277 282 286 287 284 280 280 281 284 291 295 294 297 303 306 306 306 305 303 302 304 306 305 301 299 298 296 293 292 291 290 288 287 287 288 288 288 288 288 288 286 284 282 280 279 279
233 241 250 257 265 273 280 285 288 291 295 299 301 301 300 298 299 302 306 312 319 322 322 318 312 309 309 311 312 308 302 298 297 297 294 286 279 275 274 279 284 289 290 287 283 282 282 284 288 291 292 295 300 304 306 304 298 295 296 301 304 303 297 292 293 294 293 292 293 293 292 290 290 289 288 288 287 287 287 285 282 280 280 280 279
230 238 246 256 265 273 278 281 284 287 290 294 298 301 304 304 302 301 303 306 312 316 319 320 319 317 314 311 311 309 303 297 294 295 293 286 280 274 271 273 279 285 286 282 279 278 279 283 287 289 293 299 303 306 306 303 298 296 297 299 301 301 295 289 289 291 291 291 292 291 290 289 288 288 287 287 286 287 287 284 279 277 278 279 278
237 242 249 258 266 271 277 282 285 287 289 290 293 296 301 305 303 300 299 301 306 310 314 318 321 322 319 313 311 311 307 301 296 294 291 286 280 275 272 275 280 284 284 279 278 281 282 284 286 289 295 302 305 304 303 303 302 300 300 299 299 298 294 290 289 290 289 288 288 287 287 287 287 288 288 287 287 287 286 284 280 278 279 280 278
244 249 254 260 265 268 273 279 283 286 287 289 292 295 298 301 302 301 298 296 300 305 309 314 318 321 320 316 313 311 308 304 300 294 290 286 282 277 276 277 280 282 281 279 280 283 286 288 289 291 296 301 303 303 302 302 302 300 298 297 298 297 293 289 288 289 288 285 282 282 283 284 285 287 288 287 285 284 283 281 280 281 282 282 279
249 254 257 259 263 267 271 275 278 281 284 286 290 292 295 296 298 302 301 296 295 298 303 308 312 316 316 314 313 310 306 303 299 294 288 285 283 278 274 274 276 277 277 279 281 283 286 288 289 292 295 298 301 303 302 300 298 296 295 295 297 297 294 290 288 288 289 287 284 281 281 284 287 289 288 286 284 283 282 282 282 282 282 281 278
251 254 257 259 263 267 271 274 276 278 280 282 285 288 291 292 290 292 297 296 292 292 297 302 306 308 309 310 311 309 305 303 300 294 288 287 288 283 276 273 274 275 277 281 285 287 287 286 288 291 293 295 299 301 299 296 294 293 294 296 297 296 295 293 290 288 288 288 286 284 284 288 292 291 289 286 285 284 284 284 283 282 281 279 277
250 253 257 260 264 267 269 270 272 273 276 280 282 285 290 291 287 284 289 291 289 288 292 297 302 303 304 307 309 306 302 301 300 295 290 290 289 284 280 277 276 276 280 286 290 291 289 287 288 289 291 294 298 298 297 294 292 294 296 297 297 296 295 293 290 289 288 289 287 286 287 291 293 290 288 287 286 285 284 283 282 281 280 280 279
251 254 257 260 261 262 263 264 266 267 271 275 277 279 283 286 285 282 282 284 284 285 287 293 299 300 302 306 307 303 300 298 298 295 290 287 285 283 284 285 283 282 285 289 292 294 294 292 290 289 290 293 295 295 294 294 293 295 296 297 297 296 294 292 290 290 292 291 288 287 288 291 292 288 286 286 285 283 283 282 281 281 282 282 280
250 253 256 257 259 261 263 265 266 267 269 271 273 276 278 280 281 281 280 280 281 283 285 291 296 298 301 305 305 302 300 296 294 291 287 284 284 285 287 289 288 288 287 289 292 295 296 294 291 290 290 290 291 292 293 294 294 295 295 295 294 292 290 290 289 290 292 291 289 288 287 289 289 285 284 284 283 282 283 283 284 284 283 280 277
248 251 254 259 264 266 267 268 268 270 271 272 276 279 279 281 284 284 282 280 280 282 285 290 293 296 299 302 302 300 298 294 289 286 283 282 282 282 284 285 285 286 287 289 292 293 294 294 293 292 291 290 291 294 295 296 296 296 295 295 293 291 290 289 288 289 289 289 289 288 288 289 287 284 282 282 281 282 284 285 286 285 281 277 275
248 251 255 262 266 268 269 270 271 274 275 279 285 285 283 285 288 287 284 282 281 282 285 288 291 294 297 300 300 296 293 289 284 282 283 282 280 279 280 281 282 283 286 288 290 293 295 296 296 295 293 293 294 296 297 297 297 298 297 296 294 293 291 289 287 287 288 290 290 290 289 289 286 283 283 283 282 283 285 286 286 284 281 280 279
252 257 262 266 269 269 270 273 278 279 280 288 293 294 293 290 286 285 285 282 280 280 283 285 288 292 296 299 297 292 287 282 280 282 283 280 277 278 279 280 282 284 286 288 291 295 298 298 297 296 295 295 296 296 297 297 298 298 296 294 293 292 290 288 288 290 292 292 292 289 288 288 288 287 287 286 285 286 288 289 288 286 284 284 284
259 263 264 266 268 268 267 272 281 280 284 293 294 296 299 294 284 282 281 278 278 280 281 284 288 293 296 296 291 286 281 278 275 277 280 280 281 284 285 285 287 289 290 293 296 299 299 298 297 296 296 296 296 296 297 296 296 295 293 293 293 291 289 290 292 294 293 292 290 285 284 287 289 288 287 286 288 292 295 296 294 291 289 287 286
263 263 261 262 261 258 258 265 272 276 285 293 292 292 297 292 282 279 278 277 280 282 282 286 290 294 294 290 283 279 276 272 270 272 279 284 287 288 288 289 293 295 297 299 300 301 300 298 297 296 296 296 296 297 297 296 295 294 293 293 292 290 290 292 294 293 291 289 287 285 284 286 287 286 287 289 291 295 298 298 295 291 290 288 285
260 256 253 250 247 251 261 268 273 280 287 290 288 289 291 286 281 279 278 279 283 285 285 289 291 290 287 282 277 275 273 270 270 274 282 288 289 289 290 294 299 301 301 302 301 300 299 297 296 296 296 297 296 296 296 295 294 293 291 290 290 291 292 294 294 293 291 291 290 288 287 288 288 290 294 296 295 296 297 295 292 292 291 288 284
Height
3228 3228 3228 3228 3228 3228 3228 3228 3228 3229 3229 3228 3227 3227 3228 3228 3227 3227 3226 3226 3225 3225 3224 3224 3223 3223 3223 3223 3223 3222 3222 3220 3219 3219 3218 3217 3216 3216 3216 3215 3216 3217 3218 3219 3219 3220 3221 3222 3222 3223 3224 3224 3225 3226 3226 3226 3226 3227 3227 3227 3228 3228 3228 3228 3228 3228 3229 3229 3229 3229 3230 3230 3230 3230 3231 3231 3231 3232 3233 3233 3233 3233 3232 3232 3233
3227 3227 3227 3227 3227 3227 3227 3228 3228 3228 3228 3227 3227 3227 3227 3226 3226 3226 3225 3225 3225 3224 3224 3224 3222 3222 3222 3223 3222 3222 3221 3220 3219 3218 3218 3216 3215 3215 3215 3214 3215 3216 3217 3218 3219 3219 3220 3221 3222 3222 3223 3223 3224 3225 3226 3226 3226 3226 3227 3227 3228 3228 3229 3229 3229 3229 3229 3229 3229 3229 3230 3230 3230 3231 3231 3231 3231 3232 3232 3233 3233 3233 3233 3232 3232
3226 3226 3226 3227 3227 3227 3227 3227 3228 3227 3227 3227 3226 3226 3226 3226 3225 3225 3225 3225 3224 3223 3223 3223 3222 3221 3221 3221 3220 3220 3220 3219 3218 3217 3217 3216 3215 3215 3214 3214 3214 3215 3216 3217 3218 3219 3220 3220 3221 3222 3222 3223 3223 3224 3225 3225 3226 3226 3226 3227 3227 3228 3228 3229 3229 3229 3229 3229 3229 3230 3230 3230 3230 3230 3231 3231 3231 3232 3232 3232 3233 3233 3233 3233 3232
3225 3225 3225 3226 3226 3226 3226 3226 3227 3226 3226 3226 3226 3226 3225 3225 3225 3225 3225 3224 3224 3222 3222 3222 3221 3220 3220 3220 3219 3218 3218 3218 3217 3216 3216 3215 3214 3214 3214 3214 3214 3214 3215 3216 3217 3218 3218 3219 3220 3221 3221 3222 3223 3223 3224 3224 3225 3226 3226 3226 3227 3227 3227 3228 3228 3229 3229 3229 3229 3230 3230 3230 3230 3230 3230 3231 3231 3231 3231 3232 3232 3233 3233 3233 3232
3225 3225 3225 3225 3225 3225 3225 3225 3226 3225 3225 3225 3225 3225 3224 3225 3224 3224 3224 3223 3223 3222 3221 3221 3221 3220 3219 3219 3218 3217 3217 3217 3216 3216 3215 3214 3214 3213 3213 3213 3214 3214 3215 3215 3216 3216 3217 3218 3219 3219 3220 3221 3222 3222 3223 3223 3224 3225 3225 3226 3226 3227 3227 3227 3227 3227 3228 3228 3229 3229 3229 3229 3230 3230 3230 3230 3230 3231 3231 3231 3231 3232 3232 3232 3232
3225 3225 3225 3225 3225 3225 3225 3225 3225 3225 3224 3224 3224 3224 3224 3224 3224 3223 3223 3222 3222 3221 3220 3220 3220 3219 3218 3218 3217 3216 3216 3215 3216 3216 3215 3215 3214 3213 3214 3213 3213 3214 3214 3214 3214 3215 3216 3217 3218 3219 3219 3220 3221 3221 3222 3222 3223 3223 3224 3224 3225 3225 3226 3226 3226 3226 3227 3227 3228 3228 3228 3229 3229 3229 3229 3230 3230 3230 3231 3231 3231 3231 3231 3232 3232
3225 3225 3225 3225 3225 3225 3225 3225 3225 3224 3223 3223 3223 3223 3223 3223 3223 3223 3221 3221 3221 3220 3219 3218 3218 3218 3217 3217 3216 3215 3215 3214 3215 3215 3215 3215 3214 3213 3213 3213 3213 3213 3213 3213 3214 3214 3215 3217 3218 3218 3219 3220 3220 3220 3221 3221 3222 3223 3223 3223 3223 3224 3224 3225 3225 3226 3226 3226 3227 3227 3228 3228 3228 3228 3228 3229 3229 3229 3230 3230 3230 3230 3231 3231 3231
3225 3225 3225 3225 3225 3224 3224 3224 3224 3223 3222 3222 3223 3223 3223 3222 3222 3221 3220 3220 3219 3218 3217 3216 3216 3216 3216 3216 3215 3214 3214 3213 3214 3214 3214 3214 3214 3213 3212 3212 3213 3213 3213 3213 3213 3214 3215 3216 3217 3217 3218 3219 3219 3219 3220 3220 3221 3222 3222 3222 3222 3223 3223 3224 3224 3225 3225 3225 3226 3226 3226 3227 3227 3227 3228 3228 3228 3229 3229 3229 3230 3230 3230 3230 3230
3224 3224 3224 3224 3224 3223 3223 3223 3222 3222 3222 3222 3222 3222 3222 3221 3221 3220 3219 3218 3218 3217 3216 3215 3214 3214 3214 3214 3214 3213 3213 3212 3212 3213 3214 3213 3213 3213 3212 3211 3212 3212 3212 3212 3213 3213 3214 3216 3216 3216 3216 3217 3218 3218 3219 3219 3220 3220 3221 3221 3221 3222 3222 3223 3223 3224 3224 3224 3224 3225 3225 3225 3225 3226 3227 3227 3227 3228 3228 3228 3229 3229 3229 3229 3230
3222 3222 3222 3222 3222 3222 3222 3222 3221 3221 3221 3221 3221 3221 3220 3220 3220 3219 3218 3217 3216 3215 3214 3214 3213 3213 3212 3212 3212 3212 3212 3211 3211 3212 3213 3212 3212 3212 3212 3211 3211 3212 3212 3212 3212 3213 3214 3214 3215 3215 3215 3216 3217 3217 3218 3218 3218 3219 3219 3220 3220 3221 3221 3221 3222 3222 3222 3223 3223 3223 3223 3224 3224 3224 3225 3225 3226 3226 3226 3227 3227 3228 3228 3228 3228
3221 3221 3221 3221 3220 3220 3221 3221 3220 3220 3220 3220 3220 3220 3219 3219 3218 3218 3217 3215 3214 3213 3212 3212 3212 3212 3211 3211 3210 3211 3211 3211 3211 3211 3211 3211 3211 3212 3212 3212 3211 3211 3212 3212 3212 3213 3213 3213 3214 3214 3214 3215 3215 3216 3216 3217 3217 3217 3218 3218 3218 3219 3219 3219 3220 3220 3220 3221 3221 3221 3221 3222 3222 3222 3223 3223 3224 3224 3224 3225 3226 3226 3227 3227 3227
3220 3220 3219 3219 3219 3219 3219 3219 3219 3219 3219 3219 3219 3219 3218 3217 3217 3216 3215 3214 3213 3212 3211 3210 3210 3210 3210 3210 3210 3210 3210 3210 3211 3211 3210 3210 3210 3211 3212 3212 3211 3211 3211 3212 3212 3212 3212 3213 3213 3213 3213 3213 3214 3214 3215 3215 3215 3215 3216 3216 3217 3217 3217 3218 3218 3218 3218 3218 3218 3219 3219 3219 3220 3220 3221 3221 3222 3222 3222 3223 3224 3224 3225 3225 3226
3218 3218 3218 3218 3218 3218 3218 3218 3218 3218 3218 3218 3218 3217 3217 3216 3216 3215 3214 3213 3212 3211 3210 3209 3209 3209 3209 3209 3209 3209 3210 3210 3210 3210 3210 3209 3209 3210 3210 3210 3209 3210 3210 3211 3211 3211 3211 3211 3212 3212 3212 3212 3212 3213 3213 3213 3213 3214 3214 3214 3215 3215 3215 3216 3216 3216 3216 3216 3216 3216 3216 3217 3218 3218 3218 3219 3219 3220 3220 3221 3221 3222 3223 3223 3224
3217 3217 3217 3217 3217 3217 3217 3216 3216 3216 3216 3217 3217 3216 3216 3215 3215 3214 3213 3213 3212 3211 3210 3209 3208 3207 3208 3208 3208 3209 3209 3209 3209 3209 3210 3210 3210 3210 3209 3208 3208 3208 3209 3210 3210 3210 3209 3210 3210 3211 3211 3211 3211 3211 3211 3212 3212 3212 3213 3213 3213 3213 3214 3214 3214 3214 3214 3214 3214 3214 3215 3215 3215 3216 3216 3216 3217 3217 3218 3218 3219 3220 3220 3221 3221
3216 3216 3216 3216 3216 3216 3216 3216 3215 3215 3215 3216 3215 3215 3215 3214 3214 3213 3213 3213 3212 3211 3210 3209 3207 3207 3207 3207 3207 3208 3208 3208 3208 3208 3209 3209 3210 3210 3210 3209 3207 3207 3208 3209 3209 3209 3208 3208 3209 3209 3209 3210 3210 3210 3210 3210 3210 3211 3211 3211 3211 3211 3212 3212 3212 3212 3212 3212 3212 3212 3213 3213 3213 3213 3214 3214 3215 3215 3215 3216 3217 3217 3218 3218 3219
3214 3214 3214 3214 3215 3215 3215 3215 3215 3215 3215 3215 3215 3214 3214 3214 3214 3213 3213 3212 3211 3210 3209 3208 3208 3207 3206 3206 3207 3207 3207 3207 3208 3208 3208 3208 3208 3209 3209 3209 3208 3206 3206 3207 3208 3208 3207 3207 3207 3207 3208 3208 3209 3209 3209 3209 3209 3209 3209 3209 3209 3209 3209 3210 3210 3210 3210 3210 3210 3210 3210 3210 3210 3211 3211 3211 3212 3212 3213 3213 3214 3215 3215 3216 3216
3213 3213 3213 3213 3213 3213 3213 3214 3214 3214 3214 3214 3214 3214 3215 3214 3214 3213 3213 3212 3211 3210 3209 3208 3207 3206 3206 3206 3206 3206 3206 3207 3207 3207 3207 3207 3207 3207 3208 3208 3207 3207 3206 3206 3206 3207 3206 3206 3206 3205 3205 3206 3206 3207 3207 3208 3207 3207 3207 3207 3207 3207 3207 3207 3207 3207 3207 3207 3207 3207 3208 3208 3208 3208 3208 3209 3209 3210 3210 3211 3211 3212 3212 3213 3213
3211 3211 3211 3212 3212 3212 3212 3213 3213 3213 3213 3214 3214 3215 3214 3214 3213 3212 3212 3211 3211 3210 3209 3208 3207 3206 3206 3206 3206 3206 3206 3206 3206 3206 3207 3207 3206 3206 3207 3207 3206 3206 3205 3205 3205 3205 3205 3205 3204 3204 3203 3203 3204 3204 3205 3206 3206 3205 3205 3205 3205 3206 3206 3205 3205 3205 3205 3205 3205 3205 3205 3205 3205 3205 3206 3206 3207 3207 3208 3208 3208 3209 3209 3209 3210
3209 3210 3210 3210 3211 3211 3212 3212 3212 3213 3213 3214 3214 3214 3214 3213 3213 3212 3211 3211 3211 3210 3209 3208 3207 3206 3206 3206 3205 3205 3205 3205 3205 3205 3206 3206 3205 3205 3205 3205 3205 3205 3204 3205 3205 3204 3204 3204 3203 3202 3203 3202 3202 3202 3203 3204 3204 3203 3203 3203 3203 3203 3203 3204 3204 3204 3203 3203 3203 3202 3203 3203 3203 3203 3203 3203 3203 3204 3204 3205 3205 3206 3206 3207 3207
3208 3208 3208 3209 3210 3210 3211 3211 3212 3212 3213 3213 3213 3213 3213 3212 3212 3212 3211 3210 3210 3209 3209 3208 3207 3206 3206 3205 3205 3205 3204 3204 3204 3204 3204 3204 3204 3203 3203 3203 3203 3203 3203 3204 3204 3204 3204 3203 3202 3201 3202 3202 3200 3200 3201 3202 3202 3201 3200 3200 3201 3201 3201 3201 3202 3202 3202 3202 3201 3201 3201 3201 3200 3200 3200 3200 3201 3201 3201 3202 3202 3202 3203 3203 3204
3206 3207 3207 3208 3209 3210 3210 3211 3211 3212 3212 3212 3212 3212 3212 3211 3211 3211 3211 3210 3209 3209 3208 3207 3207 3206 3206 3205 3205 3204 3204 3203 3203 3203 3203 3203 3202 3202 3201 3201 3200 3200 3200 3201 3202 3203 3203 3203 3202 3201 3201 3201 3200 3199 3198 3199 3200 3199 3199 3198 3198 3199 3199 3199 3199 3200 3200 3200 3200 3200 3199 3199 3199 3198 3198 3198 3198 3198 3198 3198 3199 3199 3199 3200 3200
3205 3206 3206 3207 3208 3209 3209 3210 3210 3211 3211 3211 3211 3211 3210 3211 3211 3210 3210 3209 3209 3208 3208 3207 3206 3206 3205 3204 3204 3203 3203 3202 3202 3202 3202 3202 3201 3200 3200 3200 3199 3199 3199 3199 3200 3201 3201 3201 3201 3201 3200 3200 3200 3199 3198 3198 3198 3198 3198 3197 3197 3197 3197 3197 3197 3197 3197 3197 3197 3197 3197 3197 3197 3196 3196 3196 3196 3195 3195 3196 3196 3196 3196 3197 3197
3204 3205 3206 3206 3207 3207 3208 3209 3209 3209 3210 3210 3210 3210 3210 3210 3210 3210 3209 3209 3208 3208 3208 3207 3206 3205 3204 3204 3203 3202 3202 3201 3201 3201 3201 3201 3200 3200 3199 3199 3198 3198 3199 3198 3198 3199 3198 3198 3199 3199 3199 3199 3198 3198 3197 3197 3197 3197 3197 3196 3196 3196 3195 3195 3195 3195 3195 3194 3194 3194 3194 3194 3194 3194 3193 3193 3193 3193 3193 3193 3193 3193 3193 3194 3194
3203 3204 3205 3205 3206 3206 3207 3208 3208 3208 3208 3208 3209 3209 3209 3209 3209 3209 3209 3208 3208 3207 3207 3206 3205 3204 3203 3203 3202 3201 3200 3200 3200 3199 3199 3199 3199 3199 3198 3198 3197 3197 3197 3196 3197 3197 3197 3196 3196 3196 3196 3196 3196 3196 3196 3196 3196 3195 3195 3195 3194 3194 3194 3193 3193 3193 3193 3192 3192 3191 3191 3191 3191 3190 3190 3190 3190 3190 3189 3189 3190 3190 3190 3190 3191
3202 3203 3204 3204 3205 3205 3206 3207 3207 3207 3207 3207 3208 3208 3209 3209 3209 3208 3208 3208 3207 3206 3206 3205 3204 3203 3202 3201 3201 3201 3200 3199 3198 3198 3198 3198 3198 3198 3197 3197 3197 3196 3196 3195 3196 3196 3196 3195 3195 3194 3193 3193 3193 3193 3193 3193 3192 3192 3192 3192 3192 3192 3192 3192 3191 3191 3190 3190 3190 3189 3189 3188 3187 3187 3187 3187 3186 3186 3186 3186 3186 3187 3187 3187 3187
3201 3202 3203 3204 3204 3204 3205 3206 3206 3206 3206 3206 3207 3208 3208 3208 3208 3208 3207 3206 3206 3205 3204 3203 3202 3202 3201 3200 3199 3199 3199 3198 3197 3196 3196 3195 3195 3195 3195 3195 3195 3195 3195 3194 3194 3194 3194 3193 3193 3192 3191 3191 3190 3190 3190 3189 3189 3188 3189 3189 3189 3189 3189 3189 3189 3189 3188 3188 3187 3187 3186 3185 3185 3184 3184 3184 3183 3183 3183 3183 3183 3183 3183 3183 3183
3201 3201 3202 3203 3203 3204 3204 3205 3205 3205 3205 3206 3206 3207 3208 3208 3207 3207 3206 3205 3204 3203 3203 3202 3201 3200 3200 3199 3198 3197 3197 3196 3195 3195 3194 3194 3194 3194 3193 3193 3193 3193 3193 3193 3192 3192 3192 3191 3191 3191 3190 3189 3189 3188 3188 3187 3187 3187 3187 3187 3186 3186 3185 3185 3185 3185 3186 3186 3185 3184 3183 3182 3182 3181 3181 3181 3181 3181 3180 3180 3180 3180 3180 3180 3180
3199 3200 3201 3201 3202 3202 3203 3203 3204 3204 3205 3205 3205 3205 3206 3206 3206 3205 3204 3204 3203 3202 3201 3200 3200 3199 3198 3197 3196 3195 3195 3194 3194 3193 3192 3192 3192 3192 3192 3192 3192 3191 3191 3191 3191 3190 3190 3189 3188 3189 3189 3187 3187 3187 3187 3187 3187 3186 3186 3185 3184 3184 3183 3182 3182 3182 3182 3182 3182 3181 3179 3179 3178 3178 3178 3177 3177 3177 3177 3176 3176 3176 3175 3175 3176
3198 3199 3200 3200 3201 3201 3202 3202 3203 3203 3203 3204 3205 3204 3204 3204 3204 3203 3203 3202 3201 3200 3199 3199 3198 3197 3197 3196 3194 3193 3193 3192 3191 3191 3190 3190 3190 3189 3189 3189 3189 3189 3189 3189 3189 3188 3188 3187 3186 3187 3187 3186 3185 3185 3186 3186 3186 3186 3185 3183 3183 3182 3181 3180 3180 3179 3179 3179 3179 3177 3176 3175 3174 3174 3174 3174 3173 3173 3172 3172 3172 3172 3171 3171 3171
3196 3197 3198 3199 3199 3200 3200 3201 3202 3202 3202 3203 3204 3203 3203 3202 3202 3201 3200 3200 3199 3198 3197 3197 3196 3195 3194 3194 3193 3192 3191 3190 3190 3189 3189 3188 3188 3187 3187 3187 3187 3187 3188 3187 3187 3186 3186 3185 3185 3184 3185 3185 3184 3184 3184 3183 3183 3183 3183 3182 3181 3180 3179 3179 3178 3177 3177 3176 3176 3175 3174 3173 3172 3171 3170 3170 3169 3169 3168 3168 3167 3167 3167 3167 3167
3195 3195 3196 3197 3198 3198 3199 3200 3201 3201 3202 3202 3202 3202 3201 3200 3200 3199 3198 3197 3197 3196 3195 3194 3194 3193 3192 3192 3192 3191 3190 3189 3188 3187 3187 3187 3186 3186 3185 3185 3185 3185 3185 3185 3185 3185 3184 3184 3183 3182 3182 3182 3182 3182 3181 3181 3180 3180 3180 3179 3178 3178 3177 3177 3176 3175 3175 3174 3173 3172 3172 3171 3170 3169 3168 3167 3166 3165 3164 3163 3163 3163 3163 3163 3163
3193 3194 3194 3195 3196 3196 3197 3198 3199 3200 3200 3200 3200 3200 3199 3199 3198 3197 3196 3195 3194 3194 3193 3192 3192 3191 3190 3190 3189 3189 3188 3188 3187 3186 3185 3185 3185 3184 3183 3183 3183 3183 3183 3183 3183 3183 3183 3182 3182 3181 3180 3180 3179 3179 3178 3178 3177 3176 3176 3175 3175 3174 3173 3173 3172 3172 3172 3171 3170 3169 3168 3167 3167 3166 3165 3164 3163 3162 3161 3160 3159 3158 3158 3158 3159
3191 3192 3192 3192 3193 3193 3194 3195 3196 3197 3198 3198 3198 3197 3197 3196 3196 3195 3194 3193 3192 3191 3191 3190 3190 3189 3188 3188 3187 3186 3185 3185 3185 3184 3184 3183 3183 3182 3182 3181 3181 3181 3181 3181 3181 3181 3181 3180 3180 3179 3178 3178 3178 3177 3176 3176 3175 3173 3172 3172 3171 3170 3169 3169 3168 3168 3168 3168 3167 3166 3164 3163 3163 3162 3162 3161 3160 3159 3158 3157 3156 3155 3154 3154 3154
3188 3189 3190 3190 3190 3191 3191 3192 3194 3195 3195 3196 3196 3195 3194 3194 3193 3192 3191 3191 3190 3189 3189 3188 3188 3187 3186 3186 3185 3184 3184 3183 3183 3182 3182 3182 3181 3180 3180 3180 3179 3179 3179 3179 3179 3179 3179 3179 3178 3177 3177 3176 3176 3175 3174 3173 3172 3171 3169 3168 3167 3166 3165 3165 3164 3164 3163 3163 3163 3161 3160 3159 3159 3158 3158 3158 3157 3156 3155 3154 3153 3153 3152 3151 3150
3186 3187 3187 3188 3188 3189 3190 3190 3192 3192 3192 3193 3193 3193 3192 3191 3190 3190 3189 3188 3187 3187 3186 3186 3186 3185 3184 3184 3183 3182 3182 3181 3180 3180 3180 3180 3179 3179 3178 3178 3178 3177 3177 3177 3177 3177 3177 3177 3176 3175 3175 3174 3174 3173 3171 3170 3169 3168 3167 3165 3164 3162 3161 3160 3159 3158 3158 3157 3157 3156 3155 3155 3154 3154 3153 3153 3153 3152 3152 3151 3150 3150 3149 3148 3147
3183 3184 3185 3186 3186 3187 3188 3188 3189 3189 3189 3189 3189 3190 3190 3189 3188 3187 3186 3186 3185 3184 3184 3183 3183 3183 3182 3181 3180 3180 3179 3179 3178 3178 3178 3178 3177 3177 3177 3177 3177 3176 3175 3175 3175 3174 3174 3174 3174 3173 3173 3172 3172 3171 3169 3167 3166 3165 3164 3162 3161 3159 3158 3155 3153 3153 3152 3152 3151 3151 3150 3150 3150 3149 3149 3148 3148 3147 3147 3147 3146 3146 3145 3144 3143
3181 3181 3182 3183 3183 3184 3185 3185 3186 3186 3186 3186 3186 3186 3187 3187 3186 3185 3184 3184 3183 3182 3181 3181 3180 3180 3179 3179 3178 3177 3177 3176 3176 3176 3176 3175 3175 3175 3175 3175 3175 3174 3174 3173 3172 3172 3171 3171 3171 3171 3170 3169 3169 3168 3167 3164 3163 3162 3161 3159 3158 3156 3155 3152 3150 3148 3147 3147 3146 3145 3145 3145 3145 3145 3144 3144 3143 3143 3142 3142 3141 3141 3140 3139 3139
3178 3179 3179 3180 3180 3181 3182 3182 3183 3183 3183 3183 3183 3184 3184 3184 3183 3183 3182 3181 3180 3180 3179 3178 3178 3178 3177 3177 3176 3176 3175 3175 3174 3173 3173 3173 3173 3173 3173 3173 3173 3172 3172 3171 3170 3170 3169 3168 3168 3167 3167 3166 3165 3165 3164 3161 3159 3158 3157 3155 3153 3152 3150 3148 3147 3146 3144 3143 3142 3141 3141 3140 3140 3140 3139 3139 3138 3137 3137 3137 3136 3136 3135 3134 3133
3175 3176 3176 3177 3178 3179 3180 3180 3181 3181 3181 3181 3180 3180 3181 3181 3180 3179 3178 3178 3178 3177 3176 3175 3175 3175 3175 3174 3174 3174 3173 3173 3172 3171 3171 3171 3171 3171 3170 3170 3170 3170 3169 3169 3167 3166 3165 3165 3164 3164 3163 3162 3161 3160 3160 3157 3155 3153 3151 3148 3147 3147 3146 3144 3143 3142 3142 3140 3139 3138 3137 3136 3135 3135 3134 3133 3133 3132 3132 3131 3131 3130 3130 3129 3128
3172 3173 3174 3174 3175 3176 3177 3178 3178 3179 3178 3177 3177 3177 3177 3177 3176 3175 3174 3174 3174 3173 3173 3172 3172 3172 3171 3171 3171 3171 3170 3170 3169 3169 3168 3168 3168 3168 3167 3166 3166 3166 3166 3165 3164 3163 3162 3161 3160 3160 3159 3158 3158 3156 3155 3153 3150 3148 3146 3143 3141 3141 3141 3140 3138 3138 3138 3137 3135 3134 3133 3132 3131 3130 3130 3128 3128 3127 3126 3126 3125 3124 3124 3123 3122
3169 3170 3171 3172 3172 3174 3175 3175 3176 3176 3175 3174 3173 3173 3173 3172 3172 3171 3170 3170 3170 3169 3169 3169 3168 3168 3168 3168 3168 3168 3167 3167 3166 3165 3165 3165 3164 3164 3164 3163 3163 3162 3162 3162 3161 3160 3159 3157 3156 3156 3154 3154 3154 3152 3149 3147 3145 3143 3141 3139 3136 3135 3135 3134 3134 3134 3133 3132 3130 3129 3128 3127 3126 3125 3124 3123 3122 3122 3121 3121 3120 3119 3118 3117 3116
3166 3167 3168 3169 3170 3171 3172 3172 3173 3172 3171 3170 3170 3169 3169 3168 3167 3167 3166 3166 3165 3165 3165 3165 3166 3166 3166 3166 3165 3165 3164 3163 3163 3162 3162 3161 3161 3161 3160 3160 3160 3159 3159 3158 3158 3157 3155 3154 3153 3152 3151 3150 3150 3147 3144 3142 3140 3138 3136 3135 3133 3132 3130 3128 3129 3130 3130 3127 3125 3123 3122 3123 3121 3119 3118 3117 3117 3116 3116 3115 3114 3113 3112 3112 3111
3162 3163 3165 3166 3167 3168 3169 3169 3169 3169 3168 3167 3167 3166 3164 3163 3163 3164 3163 3162 3161 3161 3162 3162 3163 3163 3163 3162 3162 3161 3160 3159 3159 3159 3158 3158 3158 3158 3157 3157 3157 3156 3155 3155 3154 3153 3151 3149 3149 3148 3147 3145 3144 3142 3140 3137 3135 3133 3132 3130 3129 3127 3126 3124 3123 3124 3126 3124 3119 3116 3116 3118 3117 3114 3113 3112 3111 3111 3111 3110 3109 3108 3107 3107 3106
3159 3160 3162 3163 3164 3165 3165 3164 3165 3165 3165 3164 3163 3162 3160 3159 3159 3160 3160 3159 3158 3158 3159 3159 3159 3160 3159 3159 3158 3157 3156 3156 3155 3155 3155 3154 3154 3154 3153 3153 3152 3152 3152 3151 3150 3148 3146 3145 3144 3144 3143 3141 3139 3138 3136 3133 3131 3129 3128 3127 3125 3123 3121 3120 3118 3118 3120 3119 3114 3111 3111 3113 3113 3109 3108 3108 3107 3106 3106 3106 3105 3104 3103 3102 3100
3155 3156 3158 3160 3160 3161 3161 3161 3161 3161 3162 3161 3160 3158 3156 3155 3156 3155 3155 3156 3156 3155 3155 3156 3156 3157 3156 3155 3154 3153 3152 3152 3152 3151 3151 3151 3151 3150 3150 3149 3149 3148 3148 3147 3146 3144 3142 3141 3140 3139 3139 3136 3134 3133 3132 3128 3126 3125 3124 3123 3122 3119 3117 3115 3114 3113 3113 3113 3110 3106 3105 3108 3108 3104 3103 3103 3102 3100 3101 3101 3100 3100 3098 3096 3094
3151 3152 3154 3155 3156 3157 3157 3157 3157 3157 3158 3157 3156 3154 3150 3148 3152 3154 3152 3151 3152 3151 3152 3153 3153 3153 3152 3151 3151 3149 3149 3149 3148 3148 3148 3147 3147 3147 3146 3145 3145 3145 3144 3143 3142 3140 3138 3136 3135 3134 3134 3132 3129 3128 3126 3124 3122 3121 3119 3118 3116 3115 3113 3111 3109 3108 3108 3108 3105 3101 3099 3102 3103 3099 3098 3099 3096 3095 3096 3097 3096 3094 3093 3091 3089
3146 3147 3150 3151 3152 3152 3152 3152 3152 3153 3154 3154 3153 3151 3146 3144 3148 3151 3149 3147 3147 3147 3148 3149 3149 3149 3148 3148 3147 3146 3146 3146 3145 3145 3145 3144 3144 3143 3143 3142 3142 3142 3141 3140 3138 3136 3134 3132 3131 3130 3128 3126 3124 3122 3121 3119 3117 3116 3114 3112 3111 3109 3107 3106 3105 3104 3104 3104 3102 3097 3094 3096 3097 3094 3093 3093 3091 3091 3092 3092 3090 3089 3087 3084 3083
3142 3144 3146 3147 3148 3148 3148 3148 3149 3150 3151 3151 3150 3148 3145 3143 3143 3144 3143 3143 3143 3143 3144 3144 3145 3145 3145 3144 3144 3143 3142 3142 3142 3142 3141 3141 3141 3140 3139 3139 3139 3138 3138 3136 3134 3132 3130 3129 3127 3125 3123 3121 3120 3118 3117 3115 3113 3111 3109 3107 3106 3104 3102 3099 3099 3100 3099 3099 3098 3094 3090 3089 3091 3089 3088 3087 3086 3085 3086 3086 3085 3083 3081 3079 3077
3139 3141 3142 3143 3144 3144 3144 3145 3146 3146 3146 3147 3146 3144 3142 3141 3139 3139 3139 3139 3140 3140 3140 3141 3141 3141 3141 3141 3140 3139 3139 3139 3139 3139 3138 3138 3138 3137 3136 3136 3135 3134 3133 3132 3130 3129 3127 3125 3123 3121 3119 3117 3115 3114 3112 3111 3109 3107 3104 3102 3101 3099 3096 3095 3095 3095 3095 3095 3094 3091 3087 3086 3086 3084 3082 3081 3080 3079 3079 3079 3078 3076 3074 3073 3072
3135 3137 3138 3139 3140 3140 3141 3141 3141 3141 3141 3141 3140 3138 3138 3137 3136 3136 3136 3137 3137 3137 3137 3137 3138 3138 3137 3137 3136 3136 3136 3136 3136 3136 3135 3135 3134 3133 3133 3132 3131 3130 3129 3128 3126 3125 3123 3122 3120 3117 3115 3113 3111 3109 3107 3106 3104 3102 3099 3097 3096 3094 3092 3091 3091 3090 3089 3091 3090 3087 3084 3083 3082 3080 3078 3076 3075 3075 3074 3073 3071 3071 3069 3068 3067
3131 3133 3134 3135 3136 3136 3136 3136 3136 3136 3136 3135 3134 3133 3133 3133 3133 3133 3133 3134 3134 3134 3134 3135 3135 3134 3134 3133 3133 3133 3133 3133 3133 3133 3132 3131 3131 3130 3129 3128 3128 3127 3126 3124 3122 3121 3119 3118 3115 3113 3111 3109 3107 3105 3103 3102 3100 3098 3095 3093 3092 3090 3089 3088 3087 3085 3084 3086 3086 3083 3079 3078 3077 3075 3074 3071 3068 3068 3070 3068 3066 3066 3065 3063 3062